Content
SEND FEEDBACK

Daily
Averages
Monthly
Summary
United States of America

BELLA VISTA, CALIFORNIA


Home > North America > United States > California
Elevation: 2412 feet     Latitude: 40 48N     Longitude: 121 57W

WEATHER
 
SELECT A DAY
Number of Records: 187,199;   Date Range: 1/1/95 - 7/26/14
 
SHARE

PRINT THIS DATA

[ ← Previous Day ]
WEATHER ALMANAC - FEBRUARY 5, 2013
[ Next Day → ]
[ °C ]   °F
Weather ElementAverageHighLow
Temperature46.6 °F57.9 °F (3:53 pm)37 °F (3:53 am)
Dewpoint38.9 °F44.1 °F (1:53 pm)33.1 °F (11:53 pm)
Humidity75.3 %93 % (4:53 am)59 % (2:53 pm)
Barometer30.06 in30.15 in (11:53 pm)30.01 in (1:53 pm)
Wind Speed2.1 mph8.1 mph (3:53 pm)
Weather ElementAverage
Visibility9.4 mi
Wind DirectionENE (79.6 °)

Weather ElementTotal
Precipitation---
Heating Degree Days17.6 (Base 65)
Averaged from 25 records on February 5, 2013
WEATHER CONDITIONS BREAKOUT
WIND DIRECTION BREAKOUT
WEATHER BY HOUR - FEBRUARY 5, 2013
[ °C ]   °F
Local TimeTemperatureDewpointHumidityBarometerVisibilityWind DirectionWind SpeedGust SpeedPrecipitationEventsConditions
1:53 AM37.9 °F35.1 °F89 %30.05 in9.0 miCalmClear
2:53 AM37.9 °F35.1 °F89 %30.04 in7.0 miCalmClear
3:53 AM37.0 °F34.0 °F89 %30.04 in7.0 miCalmClear
4:53 AM37.0 °F35.1 °F93 %30.03 in8.0 miWest (280°)3.5 mphScattered Clouds
5:53 AM37.9 °F35.1 °F89 %30.03 in6.0 miESE (110°)4.6 mphMostly Cloudy
6:53 AM39.0 °F35.1 °F86 %30.05 in10.0 miCalmMostly Cloudy
7:53 AM41.0 °F36.0 °F82 %30.06 in10.0 miCalmOvercast
8:53 AM43.0 °F37.9 °F82 %30.07 in9.0 miCalmOvercast
9:17 AM44.6 °F39.2 °F81 %30.07 in9.0 miWest (260°)3.5 mphOvercast
9:53 AM48.0 °F39.9 °F74 %30.07 in10.0 miCalmOvercast
10:53 AM50.0 °F39.9 °F68 %30.08 in10.0 miCalmOvercast
11:26 AM51.8 °F41.0 °F67 %30.07 in10.0 miCalmScattered Clouds
11:53 AM53.1 °F41.0 °F64 %30.05 in10.0 miSouth (190°)4.6 mphClear
12:53 PM55.0 °F43.0 °F64 %30.03 in10.0 miSSE (160°)4.6 mphClear
1:53 PM57.0 °F44.1 °F62 %30.01 in10.0 miSSE (160°)4.6 mphClear
2:53 PM57.0 °F43.0 °F59 %30.01 in10.0 miSSW (200°)6.9 mphPartly Cloudy
3:53 PM57.9 °F44.1 °F60 %30.01 in10.0 miSouth (190°)8.1 mphClear
4:53 PM57.0 °F44.1 °F62 %30.02 in10.0 miSW (220°)4.6 mphPartly Cloudy
5:53 PM54.0 °F43.0 °F66 %30.04 in10.0 miSE (140°)3.5 mphMostly Cloudy
6:53 PM52.0 °F42.1 °F69 %30.06 in9.0 miCalmScattered Clouds
7:53 PM50.0 °F41.0 °F71 %30.07 in10.0 miEast (80°)3.5 mphClear
8:53 PM46.0 °F39.0 °F76 %30.09 in10.0 miCalmClear
9:53 PM44.1 °F35.1 °F71 %30.11 in10.0 miCalmClear
10:53 PM39.2 °F35.6 °F87 %30.13 in10.0 miCalmClear
11:53 PM37.9 °F33.1 °F83 %30.15 in10.0 miCalmClear
Hourly data recorded from KRDD, located miles away from Bella Vista, California







STORIES FROM OUR PARTNERS